Regional Weather Roundup
Issued by NWS

Home | Current Version | Previous Version | Graphics & Text | Print | Product List | Glossary On
Versions: 1 2 3 4 5 6 7 8 9 10 11 12 13 14 15 16 17 18 19 20 21 22 23 24 25 26 27 28 29 30 31 32 33 34 35 36 37 38 39 40 41 42 43 44 45 46 47 48 49 50
000
ASUS43 KLMK 300002
RWRKY
KENTUCKY REGIONAL WEATHER ROUNDUP
NATIONAL WEATHER SERVICE LOUISVILLE KY
800 PM EDT FRI MAY 29 2015

NOTE "FAIR" INDICATES FEW OR NO CLOUDS BELOW 12,000 FEET
WITH NO SIGNIFICANT WEATHER AND/OR OBSTRUCTIONS TO VISIBILITY.

KYZ001>023-026-027-061>063-070>075-300100-
WESTERN AND SOUTH CENTRAL KENTUCKY

CITY           SKY/WX    TMP DP  RH WIND       PRES   REMARKS
PADUCAH        MOSUNNY   82  66  58 S9        29.99R
HENDERSON      SUNNY     81  66  61 S12       29.99S
OWENSBORO      MOSUNNY   81  70  69 S8        30.02F
HOPKINSVILLE   NOT AVBL
BOWLING GREEN  CLOUDY    80  67  64 SE9       30.06R
GLASGOW        NOT AVBL
$$

KYZ024-025-028>034-038-045-046-053-300100-
NORTH CENTRAL KENTUCKY

CITY           SKY/WX    TMP DP  RH WIND       PRES   REMARKS
LOUISVILLE/SDF PTCLDY    81  65  58 SW9       30.04S
LOUISVILLE/LOU CLEAR     81  64  56 S8        30.05S
FORT KNOX      MOCLDY    78  67  69 S3        30.04F
$$

KYZ035>037-039>044-047>052-055>060-089>105-300100-
NORTHEAST KENTUCKY

CITY           SKY/WX    TMP DP  RH WIND       PRES   REMARKS
LEXINGTON      PTCLDY    78  65  63 S9        30.09S
COVINGTON      MOCLDY    80  68  66 S5        30.06S
FRANKFORT      PTCLDY    78  65  63 S7        30.06S
$$

KYZ054-064>069-076>088-106>120-300100-
SOUTHEAST KENTUCKY

CITY           SKY/WX    TMP DP  RH WIND       PRES   REMARKS
JACKSON        PTCLDY    75  69  81 SE5       30.15R
LONDON         TSTM      72  63  73 S8        30.14R
SOMERSET       NOT AVBL
MIDDLESBORO    PTCLDY    77  65  66 CALM      30.14F
MONTICELLO     MOCLDY    74  71  90 S3        30.14F
$$



USA.gov is the U.S. government's official web portal to all federal, state and local government web resources and services.